Weather Roundup
Issued by NWS Chicago, IL

Home | Current Version | Previous Version | Graphics & Text | Print | Product List | Glossary On
Versions: 1 2 3 4 5 6 7 8 9 10 11 12 13 14 15 16 17 18 19 20 21 22 23 24 25 26 27 28 29 30 31 32 33 34 35 36 37 38 39 40 41 42 43 44 45 46 47 48 49 50
000
NZUS59 KLOT 301808
HRRLOT

CHICAGO AREA WEATHER ROUNDUP
NATIONAL WEATHER SERVICE CHICAGO/ROMEOVILLE IL
100 PM CDT MON MAY 30 2016

NOTE: "FAIR" INDICATES FEW OR NO CLOUDS BELOW 12,000 FEET WITH NO
SIGNIFICANT WEATHER AND/OR OBSTRUCTIONS TO VISIBILITY.

* THESE STATIONS ARE NOT UNDER NWS QUALITY CONTROL. THEY ALSO MAY NOT
  REPORT WEATHER SUCH AS PRECIPITATION OR FOG.

ILZ005-006-012>014-019>023-301900-
NORTHEAST ILLINOIS

CITY           SKY/WX    TMP DP  RH WIND       PRES   REMARKS
OHARE          MOSUNNY   84  60  44 NW12      30.00F HX  84
6HR MIN TEMP:  68; 6HR MAX TEMP:  84;

MIDWAY         MOSUNNY   85  59  41 W10       30.00F HX  84
6HR MIN TEMP:  70; 6HR MAX TEMP:  85;

AURORA         SUNNY     85  62  46 NW15      30.01F HX  85
6HR MIN TEMP:  66; 6HR MAX TEMP:  85;

LANSING*       MOSUNNY   84  58  41 W9        30.01F HX  83
JOLIET*        MOSUNNY   87  60  40 NW8G16    30.00F HX  86
WAUKEGAN       PTSUNNY   76  60  57 E9        30.01S
6HR MIN TEMP:  67; 6HR MAX TEMP:  81;

DUPAGE AIRPORT SUNNY     83  58  42 NW14G21   30.00F HX  83
6HR MIN TEMP:  65; 6HR MAX TEMP:  84;

WHEELING       MOSUNNY   82  58  43 NW13      30.02F HX  82
6HR MIN TEMP:  69; 6HR MAX TEMP:  83;

KANKAKEE*      MOSUNNY   85  56  36 W7        30.02F HX  84
MORRIS*        MOSUNNY   87  56  34 W15G21    29.99F HX  85
LEWIS AIRPORT* MOSUNNY   86  53  31 NW18      30.01F HX  84
$$

WIZ051-052-058>065-066-070>072-301900-
SOUTHEAST WISCONSIN

CITY           SKY/WX    TMP DP  RH WIND       PRES   REMARKS
MILWAUKEE      PTSUNNY   74  60  61 E10       30.01F
6HR MIN TEMP:  67; 6HR MAX TEMP:  81;

KENOSHA*       MOSUNNY   82  58  43 NW8       30.01F HX  82
RACINE*        PTSUNNY   75  58  55 E12       30.03F
BURLINGTON     MOSUNNY   80  53  39 W12       30.02F HX  80
WEST BEND      CLOUDY    77  54  44 W6        30.02F
$$

INZ001>003-010>013-019-020-301900-
NORTHWEST INDIANA

CITY           SKY/WX    TMP DP  RH WIND       PRES   REMARKS
GARY*          MOSUNNY   81  66  61 NE7G21    30.02F HX  83
MICHIGAN CITY* NOT AVBL
RENSSELAER*    NOT AVBL
VALPARAISO     PTSUNNY   86  58  38 NW12G18   30.01F HX  85
$$

LMZ740>746-301900-
SOUTHERN LAKE MICHIGAN

STATION/POSITION TIME  SKY/WX   TEMP WIND        PRES    VSBY
                                AIR  DIR/SP/G
                 (UTC)          (F)  (DEG/KT/KT) (MB)    (MI)
HARRISON CRIB    1700            69   80/ 10/ 10   N/A
BURNHAM HARBOR   1800            71   10/  3/  6   N/A
CALUMET HARBOR   1700            69   50/  8/  9 1016.2F
BURNS HARBOR     1700            69   50/  9/ 10 1017.3F
MICHIGAN CITY    1700            68  360/ 10/ 10   N/A
$$

ABBREVIATIONS USED IN REMARKS
   TC - TEMPERATURE IN CELSIUS
  WCI - WIND CHILL INDEX
   HX - HEAT INDEX
  VSB - VISIBILITY
$$




USA.gov is the U.S. government's official web portal to all federal, state and local government web resources and services.